User: anonymous   Login
Location: Unspecified
(0.0000°N, 0.0000°E)
Time: 19:10:58
(UTC+00:00)
Language:

COSMOS 2429 - Orbit

View from above orbital plane
View from above orbital plane
View from above satellite
View from above satellite

Ground track
Ground track

The orbit data is extracted from the following two-line orbital elements,

1 32052U 07038A   18110.83688460  .00000044  00000-0  30325-4 0  9999
2 32052  82.9812 241.1047 0037102 273.7996  85.8918 13.74901760532310
Epoch (UTC): 20 April 2018 20:05:06
Eccentricity: 0.0037102
inclination: 82.9812°
perigee height: 955 km
apogee height: 1009 km
right ascension of ascending node: 241.1047°
argument of perigee: 273.7996°
revolutions per day: 13.74901760
mean anomaly at epoch: 85.8918°
orbit number at epoch: 53231

The dashed part of the orbit path shows where the satellite is in the earth's shadow,  

DLR